Location: Unspecified
(43.8044°N, 11.0278°E)
Time: 05:27:28
(UTC+02:00)

Cosmos 1674 - Visible Passes

Search period start: 28 September 2016 00:00
Search period end: 08 October 2016 00:00
Orbit: 501 x 524 km, 82.5° (Epoch: 26 September)

Date Brightness Start Highest point End Pass type
(mag) Time Alt. Az. Time Alt. Az. Time Alt. Az.
28 Sep 3.1 20:56:01 10° NNW 20:59:53 63° W 21:01:26 33° SSW visible
29 Sep 2.7 20:39:58 10° N 20:43:52 80° W 20:46:20 22° S visible
30 Sep 2.6 20:23:58 10° N 20:27:52 81° E 20:31:25 12° S visible
01 Oct 2.6 20:07:59 10° N 20:11:52 64° E 20:15:42 10° SSE visible
02 Oct 2.9 19:52:02 10° N 19:55:50 50° ENE 19:59:36 10° SSE visible
02 Oct 6.0 21:29:33 10° WNW 21:30:59 12° W 21:32:25 10° WSW visible
03 Oct 3.2 19:36:06 10° N 19:39:47 40° ENE 19:43:27 10° SSE visible
03 Oct 5.8 21:12:54 10° NW 21:15:03 15° W 21:17:13 10° WSW visible
04 Oct 3.4 19:20:12 10° N 19:23:44 32° ENE 19:27:14 10° SE visible
04 Oct 5.6 20:56:28 10° NW 20:59:08 18° W 21:01:46 10° SW visible
05 Oct 5.3 20:40:09 10° NW 20:43:11 22° W 20:46:11 10° SW visible
06 Oct 5.0 20:23:55 10° NNW 20:27:13 27° W 20:30:30 10° SSW visible
07 Oct 4.6 20:07:44 10° NNW 20:11:15 33° W 20:14:44 10° SSW visible
